Weather History for Fargo, ND

Change the Weather History Date:

Monday, August 19, 2013

  Actual Average Record
Temperature  
Mean Temperature 79 °F 69 °F  
Max Temperature 90 °F 81 °F 105 °F (1976)
Min Temperature 67 °F 57 °F 39 °F (1978)
Degree Days  
Heating Degree Days 0 1  
Month to date heating degree days 17 15  
Since 1 June heating degree days 96 104  
Since 1 July heating degree days 34 31  
Cooling Degree Days 14 5  
Month to date cooling degree days 53 117  
Year to date cooling degree days 461 457  
Since 1 June cooling degree days 432 426  
Growing Degree Days 28 (Base 50)    
Moisture  
Dew Point 67 °F    
Average Humidity 67    
Maximum Humidity 87    
Minimum Humidity 47    
Precipitation  
Precipitation 0.00 in 0.10 in 3.41 in (1935)
Month to date precipitation 0.25 1.43  
Year to date precipitation 21.78 14.93  
Snow  
Snow 0.00 in 0.00 in 0.00 in ()
Month to date snowfall 0.0 0.0  
Since 1 June snowfall 0.0 0.0  
Since 1 July snowfall 0.0 0.0  
Snow Depth 0.00 in    
Sea Level Pressure  
Sea Level Pressure 29.83 in    
Wind  
Wind Speed 8 mph (South)    
Max Wind Speed 16 mph    
Max Gust Speed 20 mph    
Visibility 10 miles    
Events      
T = Trace of Precipitation, MM = Missing Value Source: NWS Daily Summary

Daily Weather History Graph

Daily Weather History Graph

Search for Another Location

Airport:

Trip Planner

Search our weather history database for the weather conditions in past years. The results will help you decide how hot, cold, wet, or windy it might be!

Date:

Astronomy

Aug. 19, 2013 Rise Set
Actual Time 6:30 AM CDT 8:30 PM CDT
Civil Twilight 5:57 AM CDT 9:03 PM CDT
Nautical Twilight 5:16 AM CDT 9:43 PM CDT
Astronomical Twilight 4:31 AM CDT 10:27 PM CDT
Moon 7:22 PM CDT (8/19) 4:48 AM CDT (8/19)
Length of Visible Light 15h 05m
Length of Day
14h 00m
Waxing Gibbous, 97% of the Moon is Illuminated
Aug 19
Waxing Gibbous
Aug 20
Full
Aug 28
Last Quarter
Sep 5
New
Sep 12
First Quarter

Hourly Weather History & Observations

Time (CDT) Temp. Heat Index Dew Point Humidity Pressure Visibility Wind Dir Wind Speed Gust Speed Precip Events Conditions
12:53 AM 73.9 °F - 66.9 °F 79% 29.87 in 10.0 mi South 8.1 mph - N/A   Clear
1:53 AM 73.0 °F - 66.9 °F 81% 29.88 in 10.0 mi South 10.4 mph - N/A   Clear
2:53 AM 73.0 °F - 66.9 °F 81% 29.85 in 10.0 mi South 11.5 mph - 0.00 in   Clear
3:53 AM 72.0 °F - 66.0 °F 81% 29.84 in 10.0 mi South 12.7 mph - N/A   Clear
4:53 AM 71.1 °F - 66.0 °F 84% 29.84 in 9.0 mi SSW 11.5 mph - N/A   Clear
5:53 AM 69.1 °F - 64.9 °F 87% 29.85 in 8.0 mi South 4.6 mph - N/A   Clear
6:53 AM 68.0 °F - 64.9 °F 90% 29.86 in 6.0 mi SSE 4.6 mph - N/A   Clear
7:53 AM 70.0 °F - 64.9 °F 84% 29.87 in 8.0 mi South 5.8 mph - N/A   Clear
8:53 AM 73.0 °F - 66.0 °F 79% 29.88 in 9.0 mi South 8.1 mph - N/A   Clear
9:53 AM 77.0 °F - 66.9 °F 71% 29.87 in 10.0 mi SW 8.1 mph - N/A   Clear
10:53 AM 80.1 °F 82.3 °F 66.9 °F 64% 29.86 in 10.0 mi SSW 5.8 mph - N/A   Clear
11:53 AM 82.0 °F 84.9 °F 68.0 °F 62% 29.86 in 10.0 mi Variable 4.6 mph - N/A   Clear
12:53 PM 86.0 °F 90.1 °F 69.1 °F 57% 29.85 in 10.0 mi SSW 8.1 mph - N/A   Clear
1:53 PM 87.1 °F 91.3 °F 69.1 °F 55% 29.84 in 10.0 mi South 5.8 mph - N/A   Partly Cloudy
2:53 PM 89.1 °F 94.1 °F 70.0 °F 53% 29.83 in 10.0 mi South 8.1 mph - N/A   Partly Cloudy
3:53 PM 89.1 °F 92.9 °F 68.0 °F 50% 29.81 in 10.0 mi SE 6.9 mph - N/A   Clear
4:53 PM 90.0 °F 92.8 °F 66.9 °F 46% 29.81 in 10.0 mi SE 9.2 mph - N/A   Clear
5:53 PM 88.0 °F 90.7 °F 66.9 °F 49% 29.80 in 10.0 mi SSE 6.9 mph - N/A   Clear
6:53 PM 87.1 °F 90.6 °F 68.0 °F 53% 29.79 in 10.0 mi South 9.2 mph - N/A   Clear
7:53 PM 84.0 °F 87.8 °F 69.1 °F 61% 29.78 in 10.0 mi South 10.4 mph - N/A   Clear
8:53 PM 81.0 °F 84.1 °F 69.1 °F 67% 29.79 in 10.0 mi South 9.2 mph - N/A   Clear
9:53 PM 79.0 °F - 69.1 °F 72% 29.80 in 10.0 mi South 8.1 mph - N/A   Clear
10:53 PM 79.0 °F - 69.1 °F 72% 29.79 in 10.0 mi South 9.2 mph - N/A   Clear
11:53 PM 77.0 °F - 69.1 °F 76% 29.78 in 10.0 mi South 9.2 mph - N/A   Clear